SWIFT

Last updated on Sun Oct 19 2025 00:02:39 GMT+0000 (Coordinated Universal Time)

1 28485U 04047A 25291.11857199 .00058473 00000+0 11622-2 0 9992 2 28485 20.5538 220.5521 0005232 235.7897 124.2049 15.45239515149086
UTC large
Height (km)
Speed (km/s)
/
Latitude / Longitude
Inclination (degrees)
Orbital Period (minutes)
Azimuth
Elevation
Range (km)
Doppler Factor

Next 0 passes for location: London (51.5072 / 0.1276)

Sorry there are no passes over London.